Location: Newark
(54.3386°S, 169.8415°W)
Time: 00:34:00
(UTC+00:00)

A-11 Canister half - Visible Passes

Search period start: 16 October 2019 00:00
Search period end: 26 October 2019 00:00
Orbit: 1514 x 1686 km, 47.2° (Epoch: 14 October)

Date Brightness Start Highest point End Pass type
(mag) Time Alt. Az. Time Alt. Az. Time Alt. Az.
16 Oct 9.5 06:24:59 10° W 06:34:27 54° NNW 06:44:12 10° ENE visible
16 Oct 10.0 08:29:39 10° W 08:38:07 33° NW 08:43:08 22° N visible
16 Oct 10.8 10:38:25 10° WNW 10:40:32 11° WNW 10:41:19 11° NW visible
17 Oct 10.0 08:06:42 10° W 08:15:16 34° NW 08:21:26 18° NNE visible
17 Oct 10.8 10:14:36 10° WNW 10:17:46 12° WNW 10:19:37 11° NW visible
18 Oct 10.0 07:43:46 10° W 07:52:25 35° NW 07:59:45 15° NNE visible
18 Oct 10.8 09:51:05 10° WNW 09:55:00 13° NW 09:57:57 11° NW visible
19 Oct 10.0 07:20:51 10° W 07:29:33 37° NNW 07:38:07 11° NNE visible
19 Oct 10.8 09:27:44 10° W 09:32:13 14° NW 09:36:20 11° NNW visible
20 Oct 10.0 06:57:55 10° W 07:06:42 38° NNW 07:15:40 10° NNE visible
20 Oct 10.8 09:04:27 10° W 09:09:26 15° NW 09:14:27 10° NNW visible
21 Oct 10.0 06:35:01 10° W 06:43:50 39° NNW 06:52:53 10° NNE visible
21 Oct 10.8 08:41:15 10° W 08:46:38 16° NW 08:52:05 10° NNW visible
22 Oct 10.8 08:18:06 10° W 08:23:51 17° NW 08:29:40 10° NNW visible
23 Oct 10.8 07:54:58 10° W 08:01:03 18° NW 08:07:13 10° N visible
24 Oct 10.8 07:31:54 10° W 07:38:15 19° NW 07:44:42 10° N visible
25 Oct 10.8 07:08:51 10° W 07:15:27 21° NW 07:22:10 10° N visible
